EW8669 Weather Reports


Display with metric or nautical units.
time (UTC)temp
F
wind
direction
speed
MPH
gust
MPH
rain 1hr
in
rain 24hr
in
rain mn
in
humidity
%
barometer
mb
20210620130104 80 208 9.0 11.0 0.00 0.00 0.00 90 1017.7
20210620125522 80 191 7.0 11.0 0.00 0.00 0.00 90 1017.7
20210620125022 80 217 9.0 11.0 0.00 0.00 0.00 90 1017.7
20210620124546 80 205 8.0 11.0 0.00 0.00 0.00 91 1017.7
20210620124035 80 213 7.0 12.0 0.00 0.00 0.00 91 1017.8
20210620123521 80 199 9.0 12.0 0.00 0.00 0.00 91 1017.7
20210620123038 80 198 8.0 12.0 0.00 0.00 0.00 91 1017.7
20210620122529 80 198 8.0 13.0 0.00 0.00 0.00 91 1017.6
20210620122022 80 215 8.0 13.0 0.00 0.00 0.00 91 1017.7
20210620121601 79 217 9.0 12.0 0.00 0.00 0.00 91 1017.7
20210620121023 79 217 7.0 10.0 0.00 0.00 0.00 92 1017.7
20210620120538 79 204 8.0 11.0 0.00 0.00 0.00 92 1017.7
20210620120121 79 201 8.0 11.0 0.00 0.00 0.00 92 1017.7
20210620115530 79 202 8.0 11.0 0.00 0.00 0.00 92 1017.6
20210620115032 79 213 7.0 10.0 0.00 0.00 0.00 92 1017.6
20210620114538 79 197 7.0 10.0 0.00 0.00 0.00 92 1017.5
20210620114026 79 192 7.0 9.0 0.00 0.00 0.00 92 1017.5
20210620113541 79 198 5.0 10.0 0.00 0.00 0.00 92 1017.4
20210620113035 79 198 7.0 10.0 0.00 0.00 0.00 92 1017.3
20210620112547 79 211 7.0 10.0 0.00 0.00 0.00 92 1017.2
20210620112033 79 215 7.0 10.0 0.00 0.00 0.00 92 1017.2
20210620111541 79 205 6.0 9.0 0.00 0.00 0.00 92 1017.1
20210620111022 79 212 7.0 9.0 0.00 0.00 0.00 92 1017.1
20210620110525 79 209 6.0 8.0 0.00 0.00 0.00 92 1017.1
20210620110117 79 217 5.0 8.0 0.00 0.00 0.00 92 1017.1
20210620105522 79 189 6.0 8.0 0.00 0.00 0.00 91 1017.2
20210620105024 79 205 5.0 8.0 0.00 0.00 0.00 92 1017.1
20210620104535 79 199 6.0 9.0 0.00 0.00 0.00 91 1017.0
20210620104022 79 197 6.0 9.0 0.00 0.00 0.00 91 1016.9
20210620103521 79 182 6.0 9.0 0.00 0.00 0.00 91 1017.0
20210620103029 79 196 6.0 9.0 0.00 0.00 0.00 91 1017.0
20210620102521 79 179 6.0 8.0 0.00 0.00 0.00 91 1017.0
20210620102025 79 178 5.0 9.0 0.00 0.00 0.00 91 1016.9
20210620101528 79 180 5.0 9.0 0.00 0.00 0.00 91 1016.9
20210620101021 79 192 5.0 9.0 0.00 0.00 0.00 91 1016.9
20210620100522 79 186 5.0 10.0 0.00 0.00 0.00 91 1016.8
20210620100025 79 190 6.0 10.0 0.00 0.00 0.00 91 1016.8
20210620095522 79 197 6.0 9.0 0.00 0.00 0.00 91 1016.8
20210620095020 79 213 6.0 9.0 0.00 0.00 0.00 91 1016.8
20210620094553 79 200 6.0 9.0 0.00 0.00 0.00 91 1016.8
20210620094025 79 205 5.0 9.0 0.00 0.00 0.00 91 1016.7
20210620093523 79 202 6.0 9.0 0.00 0.00 0.00 91 1016.5
20210620093029 79 204 6.0 9.0 0.00 0.00 0.00 91 1016.4
20210620092520 79 185 6.0 9.0 0.00 0.00 0.00 90 1016.3
20210620092026 79 180 5.0 10.0 0.00 0.00 0.00 91 1016.4
20210620091540 79 177 6.0 10.0 0.00 0.00 0.00 91 1016.3
20210620091022 79 188 6.0 9.0 0.00 0.00 0.00 90 1016.3
20210620090522 79 185 5.0 10.0 0.00 0.00 0.00 90 1016.2
20210620090139 79 152 6.0 10.0 0.00 0.00 0.00 90 1016.1
20210620085522 79 187 5.0 8.0 0.00 0.00 0.00 90 1016.1
20210620085027 79 184 5.0 8.0 0.00 0.00 0.00 90 1016.1
20210620084536 79 167 5.0 8.0 0.00 0.00 0.00 90 1016.2
20210620084018 79 193 5.0 7.0 0.00 0.00 0.00 90 1016.2
20210620083521 79 200 4.0 7.0 0.00 0.00 0.00 89 1016.2
20210620083115 79 192 5.0 7.0 0.00 0.00 0.00 89 1016.2
20210620082520 79 187 5.0 7.0 0.00 0.00 0.00 89 1016.4
20210620082021 79 192 5.0 7.0 0.00 0.00 0.00 89 1016.2
20210620081602 79 184 4.0 7.0 0.00 0.00 0.00 89 1016.2
20210620081022 79 200 5.0 7.0 0.00 0.00 0.00 89 1016.3
20210620080520 79 190 4.0 8.0 0.00 0.00 0.00 89 1016.2
20210620080105 79 197 5.0 9.0 0.00 0.00 0.00 89 1016.1
20210620075519 79 191 6.0 9.0 0.00 0.00 0.00 88 1016.0
20210620075019 79 195 6.0 8.0 0.00 0.00 0.00 88 1016.1
20210620074619 80 182 5.0 9.0 0.00 0.00 0.00 88 1016.0
20210620074022 80 187 5.0 9.0 0.00 0.00 0.00 88 1016.0
20210620073524 80 169 6.0 10.0 0.00 0.00 0.00 88 1016.1
20210620073124 80 191 7.0 10.0 0.00 0.00 0.00 88 1016.0
20210620072520 80 208 7.0 11.0 0.00 0.00 0.00 88 1016.1
20210620072021 80 211 8.0 11.0 0.00 0.00 0.00 87 1016.1
20210620071558 80 200 8.0 11.0 0.00 0.00 0.00 87 1016.2
20210620071044 80 204 7.0 11.0 0.00 0.00 0.00 87 1016.3
20210620070520 80 193 7.0 11.0 0.00 0.00 0.00 87 1016.3
20210620070100 80 205 7.0 11.0 0.00 0.00 0.00 87 1016.3
20210620065521 80 188 6.0 11.0 0.00 0.00 0.00 86 1016.2
20210620065022 80 200 8.0 10.0 0.00 0.00 0.00 87 1016.3
20210620064544 80 186 8.0 13.0 0.00 0.00 0.00 87 1016.4
20210620064028 80 198 8.0 13.0 0.00 0.00 0.00 86 1016.3
20210620063520 80 192 8.0 13.0 0.00 0.00 0.00 86 1016.2
20210620063039 80 188 7.0 12.0 0.00 0.00 0.00 86 1016.2
20210620062551 80 186 8.0 11.0 0.00 0.00 0.00 85 1016.3
20210620062055 80 194 8.0 12.0 0.00 0.00 0.00 85 1016.3
20210620061626 80 184 8.0 12.0 0.00 0.00 0.00 85 1016.2
20210620061021 81 178 7.0 12.0 0.00 0.00 0.00 85 1016.1
20210620060521 81 186 8.0 12.0 0.00 0.00 0.00 85 1016.0
20210620060352 81 176 7.0 12.0 0.00 0.00 0.00 85 1016.2
20210620055519 81 206 7.0 12.0 0.00 0.00 0.00 84 1016.1
20210620055030 81 189 7.0 11.0 0.00 0.00 0.00 84 1016.2
20210620054642 81 188 7.0 9.0 0.00 0.00 0.00 84 1016.3
20210620054024 81 167 7.0 9.0 0.00 0.00 0.00 83 1016.3
20210620053541 81 185 6.0 10.0 0.00 0.00 0.00 83 1016.5
20210620053059 81 186 7.0 11.0 0.00 0.00 0.00 83 1016.4
20210620052522 81 195 9.0 12.0 0.00 0.00 0.00 83 1016.4
20210620052022 81 194 8.0 12.0 0.00 0.00 0.00 83 1016.5
20210620051558 81 187 8.0 12.0 0.00 0.00 0.00 83 1016.6
20210620051022 82 178 7.0 12.0 0.00 0.00 0.00 82 1016.5
20210620050533 82 186 6.0 12.0 0.00 0.00 0.00 82 1016.5
20210620050056 82 182 7.0 12.0 0.00 0.00 0.00 82 1016.6
20210620045520 82 182 8.0 13.0 0.00 0.00 0.00 82 1016.6
20210620045030 82 195 10.0 13.0 0.00 0.00 0.00 82 1016.7
20210620044551 82 188 9.0 14.0 0.00 0.00 0.00 83 1016.7
20210620044025 82 194 10.0 14.0 0.00 0.00 0.00 82 1016.8
20210620043522 82 194 9.0 12.0 0.00 0.00 0.00 83 1017.0
20210620043135 82 195 9.0 12.0 0.00 0.00 0.00 83 1017.0
20210620042521 82 194 8.0 14.0 0.00 0.00 0.00 83 1017.0
20210620042031 82 211 9.0 14.0 0.00 0.00 0.00 83 1017.0
20210620041534 82 198 8.0 11.0 0.00 0.00 0.00 83 1017.0
20210620041051 82 198 6.0 10.0 0.00 0.00 0.00 84 1016.8
20210620040520 82 196 6.0 11.0 0.00 0.00 0.00 84 1017.1
20210620040059 82 190 8.0 12.0 0.00 0.00 0.00 84 1017.2
20210620035520 82 182 8.0 12.0 0.00 0.00 0.00 85 1017.2
20210620035031 82 173 7.0 11.0 0.00 0.00 0.00 84 1017.2
20210620034557 82 167 6.0 10.0 0.00 0.00 0.00 85 1017.3
20210620034021 82 184 6.0 10.0 0.00 0.00 0.00 85 1017.3
20210620033526 82 173 4.0 7.0 0.00 0.00 0.00 85 1017.3
20210620033059 82 216 4.0 6.0 0.00 0.00 0.00 85 1017.4
20210620032526 82 214 5.0 6.0 0.00 0.00 0.00 85 1017.4
20210620032021 82 221 4.0 5.0 0.00 0.00 0.00 85 1017.3
20210620031554 82 227 3.0 7.0 0.00 0.00 0.00 85 1017.2
20210620031019 82 239 4.0 7.0 0.00 0.00 0.00 85 1017.3
20210620030521 82 247 5.0 8.0 0.00 0.00 0.00 85 1017.3
20210620030049 82 216 6.0 9.0 0.00 0.00 0.00 85 1017.2
20210620025523 82 213 6.0 9.0 0.00 0.00 0.00 85 1017.1
20210620025026 82 196 4.0 9.0 0.00 0.00 0.00 84 1016.9
20210620024556 82 173 6.0 10.0 0.00 0.00 0.00 85 1016.8
20210620024030 82 163 5.0 12.0 0.00 0.00 0.00 84 1016.7
20210620023520 82 174 6.0 13.0 0.00 0.00 0.00 84 1016.6
20210620023057 82 173 8.0 13.0 0.00 0.00 0.00 84 1016.6
20210620022529 82 144 10.0 13.0 0.00 0.00 0.00 84 1016.5
20210620022023 82 144 9.0 14.0 0.00 0.00 0.00 83 1016.3
20210620021541 83 142 9.0 14.0 0.00 0.00 0.00 83 1016.2
20210620021023 83 145 8.0 13.0 0.00 0.00 0.00 83 1016.2
20210620020523 83 139 8.0 14.0 0.00 0.00 0.00 83 1016.2
20210620020031 83 142 9.0 14.0 0.00 0.00 0.00 83 1016.2
20210620015536 83 140 8.0 12.0 0.00 0.00 0.00 83 1016.3
20210620015023 83 153 7.0 12.0 0.00 0.00 0.00 83 1016.4
20210620014529 83 163 6.0 12.0 0.00 0.00 0.00 84 1016.3
20210620014100 83 138 8.0 12.0 0.00 0.00 0.00 83 1016.4
20210620013529 83 142 8.0 11.0 0.00 0.00 0.00 83 1016.4
20210620013039 83 135 7.0 11.0 0.00 0.00 0.00 83 1016.3
20210620012532 83 135 6.0 12.0 0.00 0.00 0.00 83 1016.3
20210620012032 83 134 7.0 13.0 0.00 0.00 0.00 83 1016.2
20210620011605 84 140 9.0 13.0 0.00 0.00 0.00 82 1016.1
20210620011028 84 126 9.0 12.0 0.00 0.00 0.00 82 1016.0
20210620010523 84 142 8.0 12.0 0.00 0.00 0.00 82 1016.1
20210620010102 84 125 8.0 12.0 0.00 0.00 0.00 82 1016.2
20210620005523 84 125 7.0 12.0 0.00 0.00 0.00 82 1016.2
20210620005023 84 126 8.0 13.0 0.00 0.00 0.00 82 1016.2
20210620004620 84 124 8.0 13.0 0.00 0.00 0.00 81 1016.1
20210620004023 84 135 8.0 14.0 0.00 0.00 0.00 82 1016.0
20210620003523 84 141 10.0 14.0 0.00 0.00 0.00 81 1016.0
20210620003049 84 140 10.0 17.0 0.00 0.00 0.00 81 1015.8
20210620002531 85 132 11.0 17.0 0.00 0.00 0.00 82 1015.8
20210620002032 85 105 10.0 15.0 0.00 0.00 0.00 81 1015.7
20210620001529 85 128 11.0 15.0 0.00 0.00 0.00 81 1015.6
20210620001038 85 130 10.0 15.0 0.00 0.00 0.00 80 1015.7
20210620000522 86 123 8.0 12.0 0.00 0.00 0.00 79 1015.6
20210620000124 86 121 8.0 12.0 0.00 0.00 0.00 77 1015.6
20210619235523 87 117 7.0 10.0 0.00 0.00 0.00 75 1015.7
20210619235032 87 121 7.0 10.0 0.00 0.00 0.00 72 1015.7
20210619234546 88 124 7.0 10.0 0.00 0.00 0.00 68 1015.8
20210619234023 88 111 6.0 11.0 0.00 0.00 0.00 60 1015.9
20210619233524 89 120 7.0 11.0 0.00 0.00 0.00 59 1015.8
20210619233102 89 159 7.0 10.0 0.00 0.00 0.00 57 1015.7
20210619232522 89 159 7.0 11.0 0.00 0.00 0.00 56 1015.7
20210619232028 89 141 7.0 11.0 0.00 0.00 0.00 58 1015.8
20210619231608 89 154 6.0 10.0 0.00 0.00 0.00 57 1015.7
20210619231020 89 163 7.0 11.0 0.00 0.00 0.00 56 1015.7
20210619230519 90 153 7.0 12.0 0.00 0.00 0.00 57 1015.7
20210619230050 90 163 6.0 13.0 0.00 0.00 0.00 56 1015.7
20210619225519 90 158 8.0 13.0 0.00 0.00 0.00 54 1015.6
20210619225026 90 145 8.0 12.0 0.00 0.00 0.00 55 1015.5
20210619224551 90 166 8.0 15.0 0.00 0.00 0.00 55 1015.4
20210619224032 90 155 8.0 15.0 0.00 0.00 0.00 55 1015.6
20210619223519 90 178 9.0 15.0 0.00 0.00 0.00 57 1015.4
20210619223047 90 152 6.0 12.0 0.00 0.00 0.00 59 1015.4
20210619222519 90 123 8.0 11.0 0.00 0.00 0.00 56 1015.4
20210619222019 90 142 8.0 13.0 0.00 0.00 0.00 57 1015.4
20210619221526 90 139 10.0 14.0 0.00 0.00 0.00 55 1015.4
20210619221020 90 167 9.0 14.0 0.00 0.00 0.00 56 1015.5
20210619220518 90 145 8.0 13.0 0.00 0.00 0.00 54 1015.5
20210619220049 90 149 9.0 16.0 0.00 0.00 0.00 57 1015.5
20210619215533 90 161 8.0 17.0 0.00 0.00 0.00 57 1015.5
20210619215025 90 148 11.0 17.0 0.00 0.00 0.00 57 1015.4
20210619214545 90 163 9.0 16.0 0.00 0.00 0.00 59 1015.5
20210619214024 90 153 11.0 16.0 0.00 0.00 0.00 60 1015.5
20210619213519 90 125 8.0 14.0 0.00 0.00 0.00 62 1015.5
20210619213046 90 158 11.0 14.0 0.00 0.00 0.00 61 1015.6
20210619212519 90 167 8.0 14.0 0.00 0.00 0.00 63 1015.6
20210619212025 90 160 8.0 17.0 0.00 0.00 0.00 63 1015.6
20210619211543 90 147 10.0 17.0 0.00 0.00 0.00 62 1015.6
20210619211019 90 194 8.0 14.0 0.00 0.00 0.00 65 1015.6
20210619210519 90 164 9.0 15.0 0.00 0.00 0.00 64 1015.6
20210619210036 90 153 10.0 15.0 0.00 0.00 0.00 64 1015.7
20210619205531 90 176 7.0 12.0 0.00 0.00 0.00 62 1015.7
20210619205019 90 175 8.0 12.0 0.00 0.00 0.00 62 1015.7
20210619204533 89 156 5.0 13.0 0.00 0.00 0.00 65 1015.8
20210619204019 89 147 8.0 13.0 0.00 0.00 0.00 64 1015.9
20210619203518 89 163 8.0 13.0 0.00 0.00 0.00 63 1016.0
20210619203044 89 160 5.0 11.0 0.00 0.00 0.00 64 1016.0
20210619202521 89 156 6.0 11.0 0.00 0.00 0.00 66 1016.0
20210619202026 89 144 5.0 10.0 0.00 0.00 0.00 67 1016.0
20210619201530 89 135 5.0 10.0 0.00 0.00 0.00 66 1016.2
20210619201035 89 173 4.0 9.0 0.00 0.00 0.00 65 1016.3
20210619200519 89 177 4.0 10.0 0.00 0.00 0.00 66 1016.3
20210619200117 89 173 6.0 11.0 0.00 0.00 0.00 66 1016.3
20210619195520 89 157 8.0 11.0 0.00 0.00 0.00 64 1016.4
20210619195023 88 159 6.0 11.0 0.00 0.00 0.00 67 1016.5
20210619194533 89 197 6.0 15.0 0.00 0.00 0.00 66 1016.7
20210619194023 89 208 5.0 16.0 0.00 0.00 0.00 65 1016.8
20210619193527 89 199 7.0 16.0 0.00 0.00 0.00 66 1016.8
20210619193110 89 162 7.0 13.0 0.00 0.00 0.00 63 1016.8
20210619192531 89 186 7.0 12.0 0.00 0.00 0.00 64 1016.9
20210619192029 89 136 7.0 13.0 0.00 0.00 0.00 64 1016.9
20210619191553 89 180 5.0 13.0 0.00 0.00 0.00 64 1017.1
20210619191043 88 196 6.0 11.0 0.00 0.00 0.00 65 1017.0
20210619190531 88 148 6.0 13.0 0.00 0.00 0.00 65 1017.1
20210619190131 88 141 9.0 13.0 0.00 0.00 0.00 66 1017.1
20210619185522 88 142 5.0 15.0 0.00 0.00 0.00 67 1017.1
20210619185034 88 144 7.0 15.0 0.00 0.00 0.00 66 1017.2
20210619184603 88 155 9.0 15.0 0.00 0.00 0.00 64 1017.2
20210619184032 88 167 9.0 15.0 0.00 0.00 0.00 65 1017.3
20210619183522 87 201 6.0 13.0 0.00 0.00 0.00 66 1017.4
20210619183027 87 196 5.0 12.0 0.00 0.00 0.00 67 1017.5
20210619182522 87 137 8.0 12.0 0.00 0.00 0.00 67 1017.6
20210619182022 87 167 3.0 11.0 0.00 0.00 0.00 69 1017.6
20210619181535 86 171 7.0 10.0 0.00 0.00 0.00 68 1017.7
20210619181029 86 147 7.0 12.0 0.00 0.00 0.00 71 1017.7
20210619180523 86 212 6.0 12.0 0.00 0.00 0.00 70 1017.9
20210619180028 86 166 5.0 12.0 0.00 0.00 0.00 72 1017.9
20210619175532 86 137 7.0 12.0 0.00 0.00 0.00 71 1017.9
20210619175023 86 196 6.0 12.0 0.00 0.00 0.00 72 1018.0
20210619174600 85 181 7.0 9.0 0.00 0.00 0.00 72 1018.0
20210619174032 85 209 5.0 8.0 0.00 0.00 0.00 74 1018.2
20210619173539 85 214 4.0 10.0 0.00 0.00 0.00 74 1018.3
20210619173028 85 231 7.0 11.0 0.00 0.00 0.00 73 1018.5
20210619172542 85 216 8.0 11.0 0.00 0.00 0.00 73 1018.6
20210619172022 85 196 6.0 12.0 0.00 0.00 0.00 73 1018.5
20210619171618 85 180 6.0 12.0 0.00 0.00 0.00 75 1018.5
20210619171027 85 141 6.0 11.0 0.00 0.00 0.00 74 1018.6
20210619170601 85 198 5.0 11.0 0.00 0.00 0.00 75 1018.6
20210619170049 84 180 5.0 11.0 0.00 0.00 0.00 77 1018.7
20210619165526 84 219 2.0 12.0 0.00 0.00 0.00 78 1018.9
20210619165021 84 221 6.0 12.0 0.00 0.00 0.00 79 1019.1
20210619164528 84 199 6.0 9.0 0.00 0.00 0.00 79 1019.2
20210619164023 84 204 3.0 8.0 0.00 0.00 0.00 80 1019.2
20210619163532 84 186 4.0 8.0 0.00 0.00 0.00 80 1019.3
20210619163108 83 184 4.0 7.0 0.00 0.00 0.00 80 1019.2
20210619162536 83 163 4.0 7.0 0.00 0.00 0.00 80 1019.3
20210619162029 83 190 4.0 8.0 0.00 0.00 0.00 81 1019.4
20210619161546 83 163 5.0 8.0 0.00 0.00 0.00 81 1019.5
20210619161035 83 175 4.0 8.0 0.00 0.00 0.00 81 1019.5
20210619160523 83 151 4.0 7.0 0.00 0.00 0.00 81 1019.4
20210619160114 83 155 4.0 9.0 0.00 0.00 0.00 80 1019.4
20210619155524 83 179 4.0 10.0 0.00 0.00 0.00 80 1019.4
20210619155034 83 163 6.0 10.0 0.00 0.00 0.00 80 1019.3
20210619154532 83 151 8.0 10.0 0.00 0.00 0.00 81 1019.3
20210619154023 83 142 7.0 10.0 0.00 0.00 0.00 80 1019.2
20210619153532 83 142 5.0 8.0 0.00 0.00 0.00 82 1019.3
20210619153031 82 165 4.0 10.0 0.00 0.00 0.00 83 1019.3
20210619152525 82 144 7.0 10.0 0.00 0.00 0.00 83 1019.1
20210619152032 82 131 6.0 9.0 0.00 0.00 0.00 83 1019.2
20210619151542 82 147 5.0 8.0 0.00 0.00 0.00 83 1019.2
20210619151036 82 159 4.0 7.0 0.00 0.00 0.00 84 1019.1
20210619150520 82 188 3.0 7.0 0.00 0.00 0.00 84 1019.0
20210619150055 82 154 4.0 7.0 0.00 0.00 0.00 84 1019.0
20210619145525 82 196 4.0 7.0 0.00 0.00 0.00 85 1019.0
20210619145034 81 182 4.0 8.0 0.00 0.00 0.00 86 1019.0
20210619144635 81 155 4.0 8.0 0.00 0.00 0.00 86 1019.1
20210619144029 81 148 5.0 8.0 0.00 0.00 0.00 87 1018.9
20210619143521 81 167 5.0 9.0 0.00 0.00 0.00 87 1018.9
20210619143058 81 162 4.0 9.0 0.00 0.00 0.00 88 1018.9
20210619142531 81 197 5.0 9.0 0.00 0.00 0.00 88 1019.0
20210619142023 80 192 5.0 9.0 0.00 0.00 0.00 88 1018.9
20210619141556 80 207 6.0 9.0 0.00 0.00 0.00 89 1018.9
20210619141023 80 164 4.0 8.0 0.00 0.00 0.00 90 1018.8
20210619140527 80 211 3.0 9.0 0.00 0.00 0.00 91 1018.7
20210619140112 80 171 5.0 9.0 0.00 0.00 0.00 91 1018.7
20210619135522 80 192 3.0 8.0 0.00 0.00 0.00 92 1018.6
20210619135030 79 169 4.0 8.0 0.00 0.00 0.00 92 1018.6
20210619134550 79 193 4.0 6.0 0.00 0.00 0.00 92 1018.6
20210619134036 79 187 4.0 7.0 0.00 0.00 0.00 93 1018.6
20210619133523 79 171 3.0 7.0 0.00 0.00 0.00 93 1018.6
20210619133117 79 169 3.0 7.0 0.00 0.00 0.00 93 1018.6
20210619132534 78 178 3.0 6.0 0.00 0.00 0.00 93 1018.6
20210619132024 78 180 4.0 6.0 0.00 0.00 0.00 93 1018.6
20210619131606 78 169 4.0 6.0 0.00 0.00 0.00 93 1018.6
20210619131023 78 161 2.0 5.0 0.00 0.00 0.00 94 1018.5
20210619130521 78 160 3.0 6.0 0.00 0.00 0.00 94 1018.5